Probability
0 0 0 0 1 2 3 1 0 0 0 0 0 0 0 0 0 0 1 2 3 3 4 5 6 5 4 3 3 2 2 2 3 4 3 2 1 0 1 0 0 1 0
0 0 0 0 1 2 3 2 1 0 0 0 0 0 0 0 0 0 1 2 3 4 4 5 5 5 3 3 2 2 2 3 4 3 3 1 0 0 1 0 0 1 1
0 0 0 0 1 2 3 2 1 0 0 0 0 1 1 1 0 0 0 1 3 4 5 5 5 4 3 1 1 1 2 4 4 3 2 2 1 1 1 0 0 0 0
0 0 0 0 1 2 2 2 1 0 0 0 0 1 1 1 0 0 0 1 2 3 4 4 5 5 3 2 1 1 3 4 4 3 3 3 3 2 2 1 0 0 0
0 0 0 0 0 1 1 1 0 0 0 0 0 0 0 0 0 0 0 0 1 3 3 3 4 4 4 3 3 2 2 3 3 2 2 3 3 3 3 2 1 0 0
0 0 0 0 0 0 0 0 0 0 0 0 0 0 0 0 0 0 0 0 1 2 3 3 3 3 3 3 2 1 2 3 3 2 2 2 3 3 3 2 1 0 0
0 0 0 0 0 0 0 0 0 0 0 0 0 0 0 0 0 0 0 0 1 3 3 3 3 3 3 2 0 0 1 2 2 1 1 1 2 3 3 2 1 0 0
0 0 0 0 0 0 0 0 0 0 0 0 0 0 0 0 0 0 0 0 1 2 2 2 2 2 2 1 0 0 1 1 2 1 1 1 1 2 2 2 1 0 0
0 0 0 0 0 0 0 0 0 0 0 0 0 0 0 0 0 0 0 0 1 1 1 1 1 1 1 1 0 0 0 1 2 2 1 1 1 1 1 2 2 1 1
0 0 0 0 0 0 0 0 0 0 0 0 0 0 0 0 0 0 0 0 0 0 0 0 0 0 0 0 0 0 0 0 1 2 1 1 1 1 1 1 1 2 2
0 0 0 0 0 0 0 0 0 1 1 0 0 0 0 0 0 0 0 0 0 0 0 0 0 0 0 0 0 0 0 0 0 1 1 1 1 0 0 0 1 2 2
1 1 1 1 1 1 0 0 1 2 2 1 1 0 0 0 0 0 0 0 0 0 0 0 0 0 0 0 0 0 0 0 0 0 0 0 0 0 0 0 1 2 3
2 2 2 2 2 2 1 0 1 3 3 3 2 1 1 1 0 1 1 0 0 0 0 0 0 0 0 0 0 0 0 0 0 0 0 0 0 0 0 0 2 3 4
2 2 2 2 2 2 2 1 2 3 3 3 3 3 2 2 2 2 2 1 1 0 0 0 0 0 0 0 0 0 0 0 0 0 0 0 0 0 0 0 1 1 2
1 1 1 1 1 2 2 1 1 2 2 3 3 3 3 4 4 4 3 3 2 1 0 0 0 0 0 0 0 0 0 0 0 0 0 0 0 0 0 0 0 0 0
0 0 1 1 1 2 2 2 1 1 1 1 2 2 3 4 5 5 4 3 3 2 0 0 0 0 0 0 0 0 0 0 0 0 0 0 0 0 0 0 0 0 0
0 0 0 0 1 1 1 1 1 2 1 1 1 1 1 2 3 4 4 4 4 3 2 1 1 1 0 0 0 1 0 0 0 0 0 0 0 0 0 0 0 0 0
0 0 0 0 0 0 0 0 1 1 1 1 2 2 1 1 2 4 6 5 4 4 3 2 1 1 1 0 0 0 0 0 0 0 0 0 0 0 0 0 0 0 0
0 1 1 1 1 1 1 1 0 0 0 1 1 2 2 1 2 4 6 6 5 4 4 2 1 1 1 1 1 1 1 2 1 1 0 0 0 0 0 0 0 0 0
2 2 2 2 2 3 3 2 1 1 1 0 0 1 1 1 3 4 6 8 7 6 5 4 2 1 1 1 2 2 3 3 3 2 1 1 2 2 2 1 0 0 0
5 5 5 4 3 3 3 3 3 3 3 1 1 1 2 3 4 5 6 8 9 8 7 6 5 4 2 3 4 3 3 3 3 3 3 4 5 6 5 3 2 1 0
9 9 8 7 4 2 1 1 3 4 4 3 2 3 4 4 4 4 4 5 6 7 7 6 6 5 4 4 4 4 3 3 2 3 4 4 6 6 6 5 3 2 1
11 10 11 10 7 4 2 1 1 3 4 3 3 3 4 3 3 3 2 2 2 2 3 3 4 4 4 4 4 3 3 3 3 3 4 3 3 4 4 4 4 2 1
10 10 10 10 8 6 3 1 0 2 3 3 2 2 2 1 1 1 1 1 0 0 0 1 2 2 2 3 3 3 3 3 3 3 3 3 2 3 3 3 3 2 1
9 9 9 8 7 6 3 1 0 1 2 1 1 1 1 0 0 0 0 0 0 0 0 0 1 1 1 1 2 3 4 4 4 3 3 3 3 3 3 3 3 3 2
8 8 8 7 6 4 2 1 0 1 1 0 0 0 0 0 0 0 0 0 0 0 0 0 0 0 0 0 1 3 5 5 5 4 3 3 4 4 4 3 3 3 3
Wind_Speed
1 0 0 0 0 0 1 1 1 1 1 2 2 3 3 3 4 4 3 6 7 8 8 8 8 9 9 9 9 9 9 9 8 8 8 8 9 9 8 8 7 7 7
1 1 1 1 1 1 1 1 2 2 2 2 2 2 3 3 3 3 3 4 7 7 7 7 8 8 9 9 9 9 9 9 9 8 8 9 8 8 8 8 8 8 7
1 1 1 1 1 1 1 1 1 1 2 2 2 2 2 2 2 3 3 2 3 5 6 6 7 8 8 9 9 8 8 8 8 8 9 8 8 8 8 8 8 8 7
1 1 1 1 1 0 0 1 1 1 1 1 1 1 1 1 1 2 2 1 1 2 3 5 6 6 8 9 9 8 8 8 8 8 8 8 8 8 8 8 8 7 7
1 1 1 1 0 0 0 1 0 0 1 1 1 1 1 1 1 1 1 1 1 1 1 2 4 5 6 7 7 7 7 8 8 8 8 8 8 8 8 8 7 7 7
1 1 0 0 0 1 0 1 0 1 0 1 0 0 0 1 1 1 1 1 1 2 2 2 2 3 4 4 4 5 6 7 8 8 8 8 9 8 8 7 7 7 7
0 1 0 1 1 0 0 1 1 0 1 1 1 1 1 0 1 1 1 1 1 2 2 2 1 1 2 3 4 4 5 7 8 9 9 9 9 8 8 8 8 7 7
0 0 0 0 0 1 1 1 1 1 0 1 1 1 1 1 1 0 1 1 1 1 2 2 2 2 1 1 2 4 4 5 7 8 8 9 8 8 8 9 9 8 8
1 1 1 1 1 1 0 0 0 1 0 0 1 1 1 1 1 1 1 1 1 1 2 1 2 2 2 1 2 2 4 4 6 7 8 8 8 8 8 9 9 9 8
1 1 1 1 1 1 0 0 0 0 1 0 0 0 1 1 1 1 1 1 1 1 1 1 2 2 2 2 2 3 3 3 5 6 6 7 7 7 8 9 9 9 9
2 1 1 1 1 1 1 0 0 1 1 1 1 0 1 1 1 1 1 1 1 1 1 1 1 2 2 2 2 3 4 4 4 5 5 6 7 7 7 8 8 9 9
2 2 2 1 1 1 0 0 0 1 1 1 1 1 1 1 1 1 1 1 2 2 1 1 1 1 2 2 3 4 4 4 4 4 5 5 5 6 8 8 8 9 8
1 2 2 1 1 1 1 0 1 0 1 1 1 1 1 1 1 1 1 1 1 2 1 1 1 1 2 1 2 4 4 4 4 5 5 5 6 6 7 8 8 9 8
1 1 1 1 1 1 1 1 1 0 0 0 0 1 1 1 1 1 2 1 1 1 1 2 1 1 1 1 3 3 3 4 4 4 5 5 6 6 6 6 7 7 7
1 2 2 2 2 2 2 1 1 1 0 0 1 1 1 1 1 1 1 2 2 2 2 2 1 1 1 1 2 2 3 4 4 4 5 6 6 6 6 6 6 6 6
2 2 3 2 2 2 2 2 1 1 1 1 1 1 1 1 1 1 1 1 2 2 2 2 2 2 2 2 2 2 3 3 4 5 5 6 6 6 6 5 5 5 5
2 2 2 2 2 3 2 2 2 2 1 1 1 1 1 1 1 1 1 1 1 2 2 2 1 1 1 2 2 2 2 2 2 3 4 5 5 5 5 5 5 5 5
2 2 2 2 2 2 2 2 2 2 2 2 2 1 2 1 2 1 1 1 1 1 2 2 2 2 2 2 2 2 2 2 2 2 3 3 4 4 5 5 5 5 4
2 2 2 2 2 2 2 2 1 1 1 2 1 1 2 1 2 1 1 1 1 1 1 1 2 2 2 1 1 2 2 2 2 1 2 3 3 4 4 5 5 5 5
1 2 2 2 1 1 1 2 1 1 2 2 2 2 2 2 2 2 2 1 1 0 0 1 1 1 2 2 1 1 2 2 2 2 2 2 2 3 4 5 5 5 5
1 1 2 2 2 1 1 1 1 1 2 2 2 2 2 2 2 2 2 2 1 1 1 1 1 1 1 1 1 1 2 2 2 1 1 2 1 2 2 4 4 5 5
1 1 1 1 2 2 2 2 1 1 2 2 3 3 3 2 3 2 2 2 2 3 2 2 2 2 3 2 1 1 1 2 2 1 1 2 1 2 2 2 2 3 4
1 1 1 1 2 3 3 2 2 1 2 2 3 3 2 3 3 2 2 3 2 1 2 3 3 3 3 3 2 2 2 2 3 2 1 2 2 2 2 2 2 3 3
0 1 1 2 2 3 4 3 2 1 2 2 3 2 2 3 3 2 2 2 2 2 2 2 2 3 3 3 3 3 3 2 1 1 1 2 2 2 2 2 3 3 3
1 1 1 2 2 4 4 4 2 1 2 3 3 2 2 2 4 3 2 1 2 2 1 1 2 2 2 1 2 1 1 1 1 1 1 1 2 2 2 2 2 3 3
1 1 2 2 2 3 5 4 2 1 2 3 3 3 3 3 4 3 1 1 2 3 2 2 2 3 2 1 1 2 3 2 1 2 1 1 1 1 2 2 2 2 2
Wind_Direction
189 182 294 277 254 235 235 272 272 268 261 253 235 225 226 218 215 214 222 230 231 225 226 216 210 213 211 207 206 205 205 207 204 201 201 198 196 197 199 199 198 196 196
179 176 227 257 251 233 223 233 248 252 258 248 242 232 227 225 222 217 221 234 239 233 225 218 212 212 211 209 209 209 208 209 205 201 200 200 201 205 206 205 203 203 204
176 181 218 251 257 245 238 234 258 244 240 230 230 224 216 224 229 227 226 223 233 231 224 220 217 217 216 213 212 210 207 204 201 201 203 204 205 207 208 207 206 207 208
170 179 212 250 259 240 226 236 260 241 237 222 225 235 218 205 212 214 213 208 208 222 225 220 217 219 219 220 219 215 212 204 200 199 202 203 203 205 205 205 207 207 206
165 164 217 257 227 138 2 273 324 216 210 212 209 201 218 219 210 208 207 205 198 197 208 220 209 211 215 221 220 215 210 204 199 202 204 205 205 203 203 205 208 206 208
123 143 185 333 60 91 41 24 5 10 160 187 190 88 210 212 176 186 203 199 197 203 207 218 210 214 203 205 214 213 208 200 201 204 208 207 204 202 201 202 202 204 207
100 132 326 18 45 73 73 62 62 34 49 88 92 38 11 148 167 179 189 195 213 216 202 203 196 203 213 210 212 208 212 207 207 205 209 209 208 207 206 206 205 205 207
57 145 96 57 78 71 48 55 72 69 60 85 104 99 20 352 342 259 192 198 218 217 215 208 198 197 205 215 213 210 220 220 217 214 209 211 211 210 210 208 208 208 211
60 55 40 53 63 101 195 186 94 130 122 40 73 133 145 233 318 332 289 250 227 213 222 207 203 204 202 208 217 217 221 223 224 223 217 213 210 213 216 215 214 213 213
48 52 41 47 55 63 98 252 116 114 122 155 358 72 146 158 165 306 316 301 249 218 218 218 220 218 215 218 226 227 229 235 228 221 221 218 214 215 220 221 220 219 216
16 27 38 44 39 27 359 358 84 127 144 162 172 160 97 73 109 173 275 316 329 282 240 235 225 228 222 219 231 237 230 235 237 232 230 227 226 222 223 226 226 223 219
5 14 21 14 6 11 329 298 185 170 168 167 161 137 143 150 181 176 212 284 302 300 279 243 234 240 233 229 241 243 231 231 231 236 234 232 230 227 225 227 226 224 223
352 355 16 7 3 354 346 40 115 153 180 174 174 190 188 200 161 167 179 239 284 312 310 264 245 249 245 242 253 244 239 230 233 237 237 232 229 230 231 230 225 221 221
303 339 10 12 11 20 23 44 63 17 52 199 218 212 216 246 185 181 188 192 242 297 302 281 280 250 278 267 271 260 253 241 239 241 236 232 230 229 227 226 221 217 218
338 17 24 20 15 25 28 47 50 8 22 258 257 242 239 261 224 219 205 198 192 227 262 267 268 266 279 273 279 268 266 255 246 244 235 228 228 226 224 224 221 219 217
17 23 23 21 17 24 30 43 30 360 13 328 286 271 273 265 263 244 219 215 209 207 235 251 263 287 285 286 278 268 265 264 258 245 236 228 226 224 220 220 221 221 219
37 36 31 33 25 19 20 32 22 20 16 351 332 309 290 277 276 274 246 216 217 207 227 271 280 291 271 285 297 289 281 270 269 248 234 225 223 223 220 221 220 221 220
21 26 38 36 15 12 15 22 11 10 5 341 323 316 305 308 306 295 270 241 233 223 210 261 295 306 286 274 289 295 308 293 272 256 236 224 221 221 219 218 216 216 218
26 33 36 20 0 360 3 354 349 346 351 334 325 305 298 302 298 302 280 256 252 242 224 228 274 292 291 287 311 312 312 305 286 281 264 243 232 224 219 217 213 212 218
41 29 17 360 349 351 351 338 344 346 339 330 324 313 305 278 261 261 262 253 232 210 196 204 253 276 280 289 287 296 308 309 293 298 314 291 266 245 234 223 219 217 220
35 29 17 6 355 353 345 344 332 336 326 329 329 325 317 306 289 276 265 247 214 203 199 211 240 266 282 282 266 257 269 294 285 278 299 284 278 269 260 243 231 228 225
26 32 8 0 350 340 347 342 326 305 307 301 310 321 324 335 332 318 304 269 229 212 214 217 226 241 260 261 267 256 260 278 280 284 266 277 260 263 265 252 255 240 232
34 11 346 342 319 318 335 320 313 293 294 291 296 309 325 342 349 340 354 351 325 279 205 204 221 242 248 242 229 237 238 252 262 265 248 262 258 264 267 270 252 248 248
324 316 329 325 315 325 340 330 320 306 311 307 303 297 305 321 336 349 5 3 338 310 255 219 225 244 248 239 219 224 227 245 268 254 225 251 269 272 277 269 240 235 249
315 321 327 319 311 318 337 338 354 330 326 321 321 326 324 322 334 353 2 338 326 315 312 322 291 287 292 264 189 160 172 190 256 263 205 235 259 284 279 263 250 233 244
283 308 330 328 323 324 341 345 358 350 336 327 328 330 339 333 327 323 308 302 298 295 311 331 335 332 327 317 194 192 198 203 224 251 206 204 238 275 281 267 266 258 256